McConnell AFB, KS

11:47 AM CDT on September 17, 2019 (GMT -0500)
McConnell Air Force Base

Weather History for KIAB - May, 2019

Change the Weather History Date:

Thursday, May 23, 2019

  Actual Average Record
Temperature  
Mean Temperature 70 °F -  
Max Temperature 80 °F 76 °F 140 °F (1999)
Min Temperature 61 °F 56 °F 44 °F (2001)
Cooling Degree Days 4    
Growing Degree Days 20 (Base 50)    
Moisture  
Dew Point 62 °F    
Average Humidity 73    
Maximum Humidity 89    
Minimum Humidity 59    
Precipitation  
Precipitation 0.01 in - - ()
Sea Level Pressure  
Sea Level Pressure 29.96 in    
Wind  
Wind Speed 12 mph (East)    
Max Wind Speed 18 mph    
Max Gust Speed 29 mph    
Visibility 10 miles    
Events Rain    
Averages and records for this station are not official NWS values.
T = Trace of Precipitation, MM = Missing Value Source: NWS Daily Summary

Daily Weather History Graph

Daily Weather History Graph

Search for Another Location

Airport or City:

Astronomy

May. 23, 2019 Rise Set
Actual Time 6:13 AM CDT 8:38 PM CDT
Civil Twilight 5:43 AM CDT 9:08 PM CDT
Nautical Twilight 5:06 AM CDT 9:45 PM CDT
Astronomical Twilight 4:26 AM CDT 10:26 PM CDT
Moon 12:21 AM CDT (5/23) 10:18 AM CDT (5/23)
Length of Visible Light 15h 24m
Length of Day
14h 24m
Waning Gibbous, 77% of the Moon is Illuminated
May 23
Waning Gibbous
May 26
Last Quarter
Jun 3
New
Jun 10
First Quarter
Jun 17
Full

Hourly Weather History & Observations

Time (CDT) Temp. Dew Point Humidity Pressure Visibility Wind Dir Wind Speed Gust Speed Precip Events Conditions
12:56 AM 62.6 °F 50.2 °F 64% 29.93 in 10.0 mi ENE 6.9 mph - N/A   Mostly Cloudy
2:56 AM 62.2 °F 51.1 °F 67% 29.94 in 10.0 mi ENE 10.4 mph - N/A   Overcast
3:56 AM 61.9 °F 51.3 °F 68% 29.94 in 10.0 mi NE 10.4 mph - N/A   Overcast
4:56 AM 61.9 °F 50.7 °F 67% 29.96 in 10.0 mi ENE 11.5 mph - N/A   Overcast
5:30 AM 62.6 °F 51.8 °F 68% 29.98 in 10.0 mi NE 8.1 mph - N/A   Overcast
5:56 AM 61.7 °F 51.1 °F 68% 29.98 in 10.0 mi NE 9.2 mph - N/A   Overcast
6:56 AM 61.7 °F 51.1 °F 68% 30.01 in 10.0 mi NE 10.4 mph - N/A   Overcast
7:56 AM 62.2 °F 50.7 °F 66% 30.01 in 10.0 mi ENE 13.8 mph - N/A   Overcast
8:56 AM 63.3 °F 49.6 °F 61% 30.03 in 10.0 mi ENE 16.1 mph - N/A   Overcast
9:30 AM 64.4 °F 50.0 °F 59% 30.02 in 10.0 mi ENE 18.4 mph - N/A   Overcast
9:40 AM 64.4 °F 50.0 °F 59% 30.02 in 10.0 mi ENE 17.3 mph 24.2 mph N/A   Overcast
9:42 AM 64.4 °F 50.0 °F 59% 30.02 in 10.0 mi ENE 16.1 mph 24.2 mph N/A Rain Light Rain
9:56 AM 63.1 °F 51.6 °F 66% 30.02 in 10.0 mi ENE 11.5 mph - 0.00 in Rain Light Rain
9:59 AM 62.6 °F 51.8 °F 68% 30.02 in 10.0 mi ENE 11.5 mph - N/A   Overcast
10:15 AM 64.4 °F 51.8 °F 64% 30.02 in 10.0 mi ENE 16.1 mph - N/A   Overcast
10:56 AM 64.8 °F 51.8 °F 63% 30.02 in 10.0 mi ENE 12.7 mph - 0.00 in   Overcast
11:21 AM 64.4 °F 53.6 °F 68% 30.02 in 10.0 mi East 15.0 mph - N/A   Overcast
11:43 AM 64.4 °F 59.0 °F 83% 30.02 in 10.0 mi East 17.3 mph - N/A   Overcast
11:56 AM 64.9 °F 57.9 °F 78% 30.02 in 10.0 mi East 12.7 mph - N/A   Overcast
12:56 PM 68.5 °F 61.7 °F 79% 30.01 in 10.0 mi East 13.8 mph - N/A   Overcast
1:56 PM 72.5 °F 65.1 °F 78% 29.98 in 10.0 mi East 13.8 mph - N/A   Overcast
2:16 PM 73.4 °F 66.2 °F 78% 29.98 in 10.0 mi East 11.5 mph - N/A   Overcast
2:33 PM 73.4 °F 66.2 °F 78% 29.96 in 10.0 mi East 11.5 mph - N/A   Overcast
2:56 PM 73.9 °F 67.6 °F 81% 29.96 in 10.0 mi East 10.4 mph - N/A   Overcast
3:14 PM 77.0 °F 69.8 °F 78% 29.94 in 10.0 mi East 11.5 mph - N/A   Overcast
3:17 PM 77.0 °F 69.8 °F 78% 29.94 in 10.0 mi ESE 11.5 mph - N/A   Overcast
3:20 PM 77.0 °F 69.8 °F 78% 29.94 in 10.0 mi ESE 11.5 mph - N/A   Overcast
3:29 PM 78.8 °F 69.8 °F 74% 29.93 in 10.0 mi East 10.4 mph - N/A   Overcast
3:35 PM 78.8 °F 69.8 °F 74% 29.93 in 10.0 mi East 13.8 mph - N/A   Overcast
3:37 PM 78.8 °F 69.8 °F 74% 29.93 in 10.0 mi ESE 13.8 mph - N/A   Overcast
3:52 PM 78.8 °F 69.8 °F 74% 29.93 in 10.0 mi ESE 9.2 mph - N/A   Overcast
3:56 PM 78.3 °F 70.3 °F 77% 29.93 in 10.0 mi ESE 10.4 mph - N/A   Overcast
3:58 PM 78.8 °F 69.8 °F 74% 29.92 in 10.0 mi ESE 12.7 mph - N/A   Overcast
4:11 PM 78.8 °F 71.6 °F 78% 29.91 in 10.0 mi ESE 12.7 mph - N/A   Overcast
4:22 PM 78.8 °F 71.6 °F 78% 29.91 in 9.0 mi ESE 8.1 mph - N/A Rain Light Rain
4:37 PM 77.0 °F 73.4 °F 89% 29.91 in 10.0 mi SE 10.4 mph - N/A   Mostly Cloudy
4:53 PM 78.8 °F 73.4 °F 83% 29.91 in 10.0 mi SSE 11.5 mph 18.4 mph N/A   Mostly Cloudy
4:56 PM 78.6 °F 73.0 °F 83% 29.91 in 10.0 mi SSE 12.7 mph 18.4 mph 0.01 in   Mostly Cloudy
5:14 PM 78.8 °F 71.6 °F 78% 29.90 in 10.0 mi ESE 15.0 mph - N/A   Mostly Cloudy
5:56 PM 78.4 °F 70.2 °F 76% 29.89 in 10.0 mi ESE 15.0 mph - N/A   Mostly Cloudy
6:56 PM 77.7 °F 69.4 °F 76% 29.87 in 10.0 mi ESE 12.7 mph - N/A   Overcast
7:56 PM 76.8 °F 69.1 °F 77% 29.87 in 10.0 mi ESE 13.8 mph 19.6 mph N/A   Scattered Clouds
9:56 PM 75.4 °F 66.9 °F 75% 29.89 in 10.0 mi ESE 16.1 mph - N/A   Clear
10:56 PM 74.8 °F 66.4 °F 75% 29.92 in 10.0 mi ESE 13.8 mph - N/A   Overcast
11:56 PM 75.0 °F 66.6 °F 75% 29.91 in 10.0 mi ESE 17.3 mph 28.8 mph N/A   Scattered Clouds